﻿測定場所 (Monitoring sites),日付 (Measurement date),時間 (Measurement time),線量率 最大値 (max) μGy/h,線量率 最小値 (min) μGy/h,線量率 平均値 (average) μGy/h,
江東 (Koto),2012-07-08,23:01～24:00,0.0468,0.0396,0.0435,
江東 (Koto),2012-07-08,22:01～23:00,0.0462,0.0407,0.0433,
江東 (Koto),2012-07-08,21:01～22:00,0.0463,0.0411,0.0435,
江東 (Koto),2012-07-08,20:01～21:00,0.0475,0.0407,0.0438,
江東 (Koto),2012-07-08,19:01～20:00,0.0466,0.0412,0.0436,
江東 (Koto),2012-07-08,18:01～19:00,0.0459,0.0411,0.0439,
江東 (Koto),2012-07-08,17:01～18:00,0.0458,0.0408,0.0435,
江東 (Koto),2012-07-08,16:01～17:00,0.0461,0.0403,0.0440,
江東 (Koto),2012-07-08,15:01～16:00,0.0470,0.0411,0.0437,
江東 (Koto),2012-07-08,14:01～15:00,0.0467,0.0410,0.0437,
江東 (Koto),2012-07-08,13:01～14:00,0.0457,0.0410,0.0435,
江東 (Koto),2012-07-08,12:01～13:00,0.0465,0.0411,0.0437,
江東 (Koto),2012-07-08,11:01～12:00,0.0476,0.0419,0.0442,
江東 (Koto),2012-07-08,10:01～11:00,0.0502,0.0426,0.0455,
江東 (Koto),2012-07-08,09:01～10:00,0.0504,0.0430,0.0467,
江東 (Koto),2012-07-08,08:01～09:00,0.0520,0.0438,0.0480,
江東 (Koto),2012-07-08,07:01～08:00,0.0527,0.0467,0.0494,
江東 (Koto),2012-07-08,06:01～07:00,0.0525,0.0458,0.0491,
江東 (Koto),2012-07-08,05:01～06:00,0.0517,0.0437,0.0482,
江東 (Koto),2012-07-08,04:01～05:00,0.0484,0.0411,0.0450,
江東 (Koto),2012-07-08,03:01～04:00,0.0457,0.0402,0.0438,
江東 (Koto),2012-07-08,02:01～03:00,0.0468,0.0409,0.0442,
江東 (Koto),2012-07-08,01:01～02:00,0.0465,0.0412,0.0441,
江東 (Koto),2012-07-08,00:01～01:00,0.0472,0.0421,0.0448,
江東 (Koto),2012-07-07,23:01～24:00,0.0466,0.0415,0.0441,
江東 (Koto),2012-07-07,22:01～23:00,0.0473,0.0423,0.0447,
江東 (Koto),2012-07-07,21:01～22:00,0.0523,0.0439,0.0481,
江東 (Koto),2012-07-07,20:01～21:00,0.0561,0.0481,0.0525,
江東 (Koto),2012-07-07,19:01～20:00,0.0539,0.0420,0.0471,
江東 (Koto),2012-07-07,18:01～19:00,0.0493,0.0427,0.0467,
江東 (Koto),2012-07-07,17:01～18:00,0.0528,0.0465,0.0488,
江東 (Koto),2012-07-07,16:01～17:00,0.0508,0.0449,0.0487,
江東 (Koto),2012-07-07,15:01～16:00,0.0481,0.0421,0.0449,
江東 (Koto),2012-07-07,14:01～15:00,0.0471,0.0414,0.0439,
江東 (Koto),2012-07-07,13:01～14:00,0.0467,0.0401,0.0442,
江東 (Koto),2012-07-07,12:01～13:00,0.0470,0.0406,0.0443,
江東 (Koto),2012-07-07,11:01～12:00,0.0465,0.0411,0.0439,
江東 (Koto),2012-07-07,10:01～11:00,0.0473,0.0416,0.0445,
江東 (Koto),2012-07-07,09:01～10:00,0.0478,0.0422,0.0448,
江東 (Koto),2012-07-07,08:01～09:00,0.0469,0.0404,0.0442,
江東 (Koto),2012-07-07,07:01～08:00,0.0463,0.0416,0.0444,
江東 (Koto),2012-07-07,06:01～07:00,0.0485,0.0430,0.0453,
江東 (Koto),2012-07-07,05:01～06:00,0.0504,0.0422,0.0456,
江東 (Koto),2012-07-07,04:01～05:00,0.0499,0.0415,0.0453,
江東 (Koto),2012-07-07,03:01～04:00,0.0487,0.0413,0.0443,
江東 (Koto),2012-07-07,02:01～03:00,0.0515,0.0426,0.0472,
江東 (Koto),2012-07-07,01:01～02:00,0.0578,0.0491,0.0534,
江東 (Koto),2012-07-07,00:01～01:00,0.0573,0.0499,0.0540,
江東 (Koto),2012-07-06,23:01～24:00,0.0562,0.0475,0.0518,
江東 (Koto),2012-07-06,22:01～23:00,0.0484,0.0422,0.0452,
江東 (Koto),2012-07-06,21:01～22:00,0.0470,0.0425,0.0450,
江東 (Koto),2012-07-06,20:01～21:00,0.0483,0.0417,0.0456,
江東 (Koto),2012-07-06,19:01～20:00,0.0483,0.0428,0.0457,
江東 (Koto),2012-07-06,18:01～19:00,0.0478,0.0421,0.0449,
江東 (Koto),2012-07-06,17:01～18:00,0.0465,0.0415,0.0439,
江東 (Koto),2012-07-06,16:01～17:00,0.0470,0.0419,0.0441,
江東 (Koto),2012-07-06,15:01～16:00,0.0479,0.0423,0.0451,
江東 (Koto),2012-07-06,14:01～15:00,0.0466,0.0417,0.0443,
江東 (Koto),2012-07-06,13:01～14:00,0.0471,0.0418,0.0442,
江東 (Koto),2012-07-06,12:01～13:00,0.0467,0.0409,0.0439,
江東 (Koto),2012-07-06,11:01～12:00,0.0474,0.0415,0.0442,
江東 (Koto),2012-07-06,10:01～11:00,0.0468,0.0415,0.0442,
江東 (Koto),2012-07-06,09:01～10:00,0.0471,0.0411,0.0442,
江東 (Koto),2012-07-06,08:01～09:00,0.0464,0.0417,0.0441,
江東 (Koto),2012-07-06,07:01～08:00,0.0487,0.0419,0.0451,
江東 (Koto),2012-07-06,06:01～07:00,0.0505,0.0440,0.0473,
江東 (Koto),2012-07-06,05:01～06:00,0.0531,0.0410,0.0462,
江東 (Koto),2012-07-06,04:01～05:00,0.0468,0.0415,0.0442,
江東 (Koto),2012-07-06,03:01～04:00,0.0480,0.0421,0.0446,
江東 (Koto),2012-07-06,02:01～03:00,0.0497,0.0436,0.0461,
江東 (Koto),2012-07-06,01:01～02:00,0.0514,0.0431,0.0474,
江東 (Koto),2012-07-06,00:01～01:00,0.0475,0.0413,0.0439,
江東 (Koto),2012-07-05,23:01～24:00,0.0467,0.0421,0.0443,
江東 (Koto),2012-07-05,22:01～23:00,0.0466,0.0416,0.0440,
江東 (Koto),2012-07-05,21:01～22:00,0.0474,0.0412,0.0440,
江東 (Koto),2012-07-05,20:01～21:00,0.0468,0.0417,0.0442,
江東 (Koto),2012-07-05,19:01～20:00,0.0465,0.0412,0.0442,
江東 (Koto),2012-07-05,18:01～19:00,0.0468,0.0414,0.0440,
江東 (Koto),2012-07-05,17:01～18:00,0.0469,0.0410,0.0443,
江東 (Koto),2012-07-05,16:01～17:00,0.0473,0.0414,0.0442,
江東 (Koto),2012-07-05,15:01～16:00,0.0467,0.0418,0.0442,
江東 (Koto),2012-07-05,14:01～15:00,0.0465,0.0394,0.0441,
江東 (Koto),2012-07-05,13:01～14:00,0.0464,0.0416,0.0441,
江東 (Koto),2012-07-05,12:01～13:00,0.0466,0.0420,0.0440,
江東 (Koto),2012-07-05,11:01～12:00,0.0466,0.0410,0.0438,
江東 (Koto),2012-07-05,10:01～11:00,0.0473,0.0416,0.0441,
江東 (Koto),2012-07-05,09:01～10:00,0.0474,0.0418,0.0442,
江東 (Koto),2012-07-05,08:01～09:00,0.0467,0.0421,0.0444,
江東 (Koto),2012-07-05,07:01～08:00,0.0464,0.0415,0.0440,
江東 (Koto),2012-07-05,06:01～07:00,0.0468,0.0417,0.0444,
江東 (Koto),2012-07-05,05:01～06:00,0.0471,0.0413,0.0441,
江東 (Koto),2012-07-05,04:01～05:00,0.0465,0.0412,0.0441,
江東 (Koto),2012-07-05,03:01～04:00,0.0471,0.0412,0.0444,
江東 (Koto),2012-07-05,02:01～03:00,0.0470,0.0420,0.0440,
江東 (Koto),2012-07-05,01:01～02:00,0.0462,0.0415,0.0441,
江東 (Koto),2012-07-05,00:01～01:00,0.0466,0.0419,0.0441,
江東 (Koto),2012-07-04,23:01～24:00,0.0466,0.0413,0.0442,
江東 (Koto),2012-07-04,22:01～23:00,0.0460,0.0398,0.0438,
江東 (Koto),2012-07-04,21:01～22:00,0.0475,0.0412,0.0439,
江東 (Koto),2012-07-04,20:01～21:00,0.0472,0.0419,0.0440,
江東 (Koto),2012-07-04,19:01～20:00,0.0466,0.0413,0.0441,
江東 (Koto),2012-07-04,18:01～19:00,0.0472,0.0421,0.0444,
江東 (Koto),2012-07-04,17:01～18:00,0.0462,0.0414,0.0440,
江東 (Koto),2012-07-04,16:01～17:00,0.0466,0.0419,0.0440,
江東 (Koto),2012-07-04,15:01～16:00,0.0463,0.0409,0.0441,
江東 (Koto),2012-07-04,14:01～15:00,0.0470,0.0420,0.0440,
江東 (Koto),2012-07-04,13:01～14:00,0.0459,0.0412,0.0436,
江東 (Koto),2012-07-04,12:01～13:00,0.0466,0.0409,0.0438,
江東 (Koto),2012-07-04,11:01～12:00,0.0461,0.0409,0.0436,
江東 (Koto),2012-07-04,10:01～11:00,0.0467,0.0417,0.0438,
江東 (Koto),2012-07-04,09:01～10:00,0.0478,0.0418,0.0440,
江東 (Koto),2012-07-04,08:01～09:00,0.0473,0.0412,0.0436,
江東 (Koto),2012-07-04,07:01～08:00,0.0459,0.0413,0.0436,
江東 (Koto),2012-07-04,06:01～07:00,0.0464,0.0422,0.0442,
江東 (Koto),2012-07-04,05:01～06:00,0.0466,0.0421,0.0444,
江東 (Koto),2012-07-04,04:01～05:00,0.0467,0.0422,0.0445,
江東 (Koto),2012-07-04,03:01～04:00,0.0480,0.0420,0.0449,
江東 (Koto),2012-07-04,02:01～03:00,0.0479,0.0425,0.0446,
江東 (Koto),2012-07-04,01:01～02:00,0.0472,0.0422,0.0448,
江東 (Koto),2012-07-04,00:01～01:00,0.0476,0.0416,0.0446,
江東 (Koto),2012-07-03,23:01～24:00,0.0469,0.0424,0.0445,
江東 (Koto),2012-07-03,22:01～23:00,0.0472,0.0405,0.0441,
江東 (Koto),2012-07-03,21:01～22:00,0.0474,0.0426,0.0451,
江東 (Koto),2012-07-03,20:01～21:00,0.0499,0.0435,0.0471,
江東 (Koto),2012-07-03,19:01～20:00,0.0540,0.0460,0.0497,
江東 (Koto),2012-07-03,18:01～19:00,0.0541,0.0484,0.0512,
江東 (Koto),2012-07-03,17:01～18:00,0.0550,0.0477,0.0517,
江東 (Koto),2012-07-03,16:01～17:00,0.0531,0.0474,0.0492,
江東 (Koto),2012-07-03,15:01～16:00,0.0529,0.0463,0.0496,
江東 (Koto),2012-07-03,14:01～15:00,0.0509,0.0429,0.0469,
江東 (Koto),2012-07-03,13:01～14:00,0.0461,0.0417,0.0440,
江東 (Koto),2012-07-03,12:01～13:00,0.0462,0.0419,0.0441,
江東 (Koto),2012-07-03,11:01～12:00,0.0466,0.0412,0.0439,
江東 (Koto),2012-07-03,10:01～11:00,0.0465,0.0409,0.0438,
江東 (Koto),2012-07-03,09:01～10:00,0.0470,0.0417,0.0441,
江東 (Koto),2012-07-03,08:01～09:00,0.0471,0.0415,0.0441,
江東 (Koto),2012-07-03,07:01～08:00,0.0465,0.0421,0.0440,
江東 (Koto),2012-07-03,06:01～07:00,0.0471,0.0419,0.0442,
江東 (Koto),2012-07-03,05:01～06:00,0.0470,0.0402,0.0440,
江東 (Koto),2012-07-03,04:01～05:00,0.0464,0.0420,0.0441,
江東 (Koto),2012-07-03,03:01～04:00,0.0462,0.0413,0.0437,
江東 (Koto),2012-07-03,02:01～03:00,0.0460,0.0413,0.0439,
江東 (Koto),2012-07-03,01:01～02:00,0.0460,0.0413,0.0439,
江東 (Koto),2012-07-03,00:01～01:00,0.0485,0.0410,0.0435,
江東 (Koto),2012-07-02,23:01～24:00,0.0464,0.0408,0.0439,
江東 (Koto),2012-07-02,22:01～23:00,0.0460,0.0415,0.0437,
江東 (Koto),2012-07-02,21:01～22:00,0.0463,0.0411,0.0439,
江東 (Koto),2012-07-02,20:01～21:00,0.0468,0.0413,0.0440,
江東 (Koto),2012-07-02,19:01～20:00,0.0471,0.0412,0.0438,
江東 (Koto),2012-07-02,18:01～19:00,0.0457,0.0416,0.0439,
江東 (Koto),2012-07-02,17:01～18:00,0.0470,0.0413,0.0436,
江東 (Koto),2012-07-02,16:01～17:00,0.0489,0.0408,0.0439,
江東 (Koto),2012-07-02,15:01～16:00,0.0466,0.0419,0.0441,
江東 (Koto),2012-07-02,14:01～15:00,0.0465,0.0419,0.0439,
江東 (Koto),2012-07-02,13:01～14:00,0.0461,0.0414,0.0440,
江東 (Koto),2012-07-02,12:01～13:00,0.0467,0.0400,0.0439,
江東 (Koto),2012-07-02,11:01～12:00,0.0469,0.0415,0.0441,
江東 (Koto),2012-07-02,10:01～11:00,0.0470,0.0420,0.0440,
江東 (Koto),2012-07-02,09:01～10:00,0.0463,0.0409,0.0436,
江東 (Koto),2012-07-02,08:01～09:00,0.0469,0.0413,0.0439,
江東 (Koto),2012-07-02,07:01～08:00,0.0472,0.0409,0.0441,
江東 (Koto),2012-07-02,06:01～07:00,0.0472,0.0413,0.0443,
江東 (Koto),2012-07-02,05:01～06:00,0.0487,0.0416,0.0447,
江東 (Koto),2012-07-02,04:01～05:00,0.0478,0.0427,0.0449,
江東 (Koto),2012-07-02,03:01～04:00,0.0470,0.0426,0.0447,
江東 (Koto),2012-07-02,02:01～03:00,0.0483,0.0418,0.0455,
江東 (Koto),2012-07-02,01:01～02:00,0.0486,0.0432,0.0463,
江東 (Koto),2012-07-02,00:01～01:00,0.0489,0.0437,0.0461,
